Location: Cheyres
(46.8153°N, 6.7877°E)
Time: 13:20:09
(UTC+00:00)

FENGYUN 1C DEB - Pass Details

Date: 02 December 2021
Orbit: 843 x 915 km, 99.0° (Epoch: 18 January)

Event Time Altitude Azimuth Distance (km) Brightness Sun altitude
Exits shadow 16:52:45 11° 42° (NE) 2,465 ? -11.1°
Drops below altitude 10° 16:53:19 10° 36° (NE) 2,506 ? -11.2°
Sets 16:57:47 0° 2° (N) 3,433 ? -11.9°
